TA2VIP-13 Weather Reports


time (UTC)temp
F
wind
direction
speed
knots
gust
knots
rain 1hr
in
rain 24hr
in
rain mn
in
humidity
%
barometer
mb
20260508101640 68 270 7.0 7.0 0.00 0.00 0.00 50 1015.0
20260508100640 68 270 7.0 7.0 0.00 0.00 0.00 50 1015.0
20260508095610 68 270 7.0 7.0 0.00 0.00 0.00 50 1015.0
20260508094610 68 160 5.2 5.2 0.00 0.00 0.00 50 1015.0
20260508093610 68 160 5.2 5.2 0.00 0.00 0.00 50 1015.0
20260508092610 68 160 5.2 5.2 0.00 0.00 0.00 50 1015.0
20260508091610 66 260 5.2 5.2 0.00 0.00 0.00 50 1015.0
20260508090610 66 260 5.2 5.2 0.00 0.00 0.00 50 1015.0
20260508085610 66 260 5.2 5.2 0.00 0.00 0.00 50 1015.0
20260508084610 64 270 4.3 4.3 0.00 0.00 0.00 50 1015.0
20260508083610 64 270 4.3 4.3 0.00 0.00 0.00 50 1015.0
20260508082610 64 270 4.3 4.3 0.00 0.00 0.00 50 1015.0
20260508081610 62 280 5.2 5.2 0.00 0.00 0.00 50 1015.0
20260508080610 62 280 5.2 5.2 0.00 0.00 0.00 50 1015.0
20260508075610 62 280 5.2 5.2 0.00 0.00 0.00 50 1015.0
20260508074610 62 220 3.5 3.5 0.00 0.00 0.00 50 1015.0
20260508073610 62 220 3.5 3.5 0.00 0.00 0.00 50 1015.0
20260508072610 62 220 3.5 3.5 0.00 0.00 0.00 50 1015.0
20260508071610 59 0 0.0 0.0 0.00 0.00 0.00 50 1015.0
20260508070610 59 0 0.0 0.0 0.00 0.00 0.00 50 1015.0
20260508065610 59 0 0.0 0.0 0.00 0.00 0.00 50 1015.0
20260508064610 57 0 0.0 0.0 0.00 0.00 0.00 50 1015.0
20260508063610 57 0 0.0 0.0 0.00 0.00 0.00 50 1015.0
20260508062610 57 0 0.0 0.0 0.00 0.00 0.00 50 1015.0
20260508061610 55 0 0.0 0.0 0.00 0.00 0.00 50 1015.0
20260508060610 55 0 0.0 0.0 0.00 0.00 0.00 50 1015.0
20260508055610 55 0 0.0 0.0 0.00 0.00 0.00 50 1015.0
20260508054540 53 0 0.0 0.0 0.00 0.00 0.00 50 1015.0
20260508053540 53 0 0.0 0.0 0.00 0.00 0.00 50 1015.0
20260508052540 53 0 0.0 0.0 0.00 0.00 0.00 50 1015.0
20260508051540 48 0 0.0 0.0 0.00 0.00 0.00 50 1015.0
20260508050540 48 0 0.0 0.0 0.00 0.00 0.00 50 1015.0
20260508045540 48 0 0.0 0.0 0.00 0.00 0.00 50 1015.0
20260508044540 42 0 0.0 0.0 0.00 0.00 0.00 50 1015.0
20260508043540 42 0 0.0 0.0 0.00 0.00 0.00 50 1015.0
20260508042540 42 0 0.0 0.0 0.00 0.00 0.00 50 1015.0
20260508041540 41 10 2.6 2.6 0.00 0.00 0.00 50 1015.0
20260508040540 41 10 2.6 2.6 0.00 0.00 0.00 50 1015.0
20260508035540 41 10 2.6 2.6 0.00 0.00 0.00 50 1015.0
20260508034540 41 0 0.0 0.0 0.00 0.00 0.00 50 1015.0
20260508033540 41 0 0.0 0.0 0.00 0.00 0.00 50 1015.0
20260508032540 41 0 0.0 0.0 0.00 0.00 0.00 50 1015.0
20260508031540 39 0 0.0 0.0 0.00 0.00 0.00 50 1015.0
20260508030540 39 0 0.0 0.0 0.00 0.00 0.00 50 1015.0
20260508025540 39 0 0.0 0.0 0.00 0.00 0.00 50 1015.0
20260508024540 41 0 0.0 0.0 0.00 0.00 0.00 50 1015.0
20260508023540 41 0 0.0 0.0 0.00 0.00 0.00 50 1015.0
20260508022540 41 0 0.0 0.0 0.00 0.00 0.00 50 1015.0
20260508021541 41 50 1.7 1.7 0.00 0.00 0.00 50 1015.0
20260508020540 41 50 1.7 1.7 0.00 0.00 0.00 50 1015.0
20260508015540 41 50 1.7 1.7 0.00 0.00 0.00 50 1015.0
20260508014510 41 40 3.5 3.5 0.00 0.00 0.00 50 1015.0
20260508013510 41 40 3.5 3.5 0.00 0.00 0.00 50 1015.0
20260508012510 44 60 2.6 2.6 0.00 0.00 0.00 50 1015.0
20260508011510 44 60 2.6 2.6 0.00 0.00 0.00 50 1015.0
20260508010510 44 60 2.6 2.6 0.00 0.00 0.00 50 1015.0
20260508005510 42 10 2.6 2.6 0.00 0.00 0.00 50 1015.0
20260508004511 42 10 2.6 2.6 0.00 0.00 0.00 50 1015.0
20260508003510 42 10 2.6 2.6 0.00 0.00 0.00 50 1015.0
20260508002511 44 0 0.0 0.0 0.00 0.00 0.00 50 1015.0
20260508001511 44 0 0.0 0.0 0.00 0.00 0.00 50 1015.0
20260508000511 44 0 0.0 0.0 0.00 0.00 0.00 50 1015.0
20260507235511 44 30 3.5 3.5 0.00 0.00 0.00 50 1015.0
20260507234511 44 30 3.5 3.5 0.00 0.00 0.00 50 1015.0
20260507233511 44 30 3.5 3.5 0.00 0.00 0.00 50 1015.0
20260507232511 48 0 0.0 0.0 0.00 0.00 0.00 50 1015.0
20260507231511 48 0 0.0 0.0 0.00 0.00 0.00 50 1015.0
20260507230511 48 0 0.0 0.0 0.00 0.00 0.00 50 1015.0
20260507225511 48 30 3.5 3.5 0.00 0.00 0.00 50 1015.0
20260507224511 48 30 3.5 3.5 0.00 0.00 0.00 50 1015.0
20260507223511 48 30 3.5 3.5 0.00 0.00 0.00 50 1015.0
20260507222511 51 0 0.0 0.0 0.00 0.00 0.00 50 1015.0
20260507221441 51 0 0.0 0.0 0.00 0.00 0.00 50 1015.0
20260507220441 51 0 0.0 0.0 0.00 0.00 0.00 50 1015.0
20260507215441 51 0 0.0 0.0 0.00 0.00 0.00 50 1015.0
20260507214441 51 0 0.0 0.0 0.00 0.00 0.00 50 1015.0
20260507213441 51 0 0.0 0.0 0.00 0.00 0.00 50 1015.0
20260507212441 55 120 2.6 2.6 0.00 0.00 0.00 50 1015.0
20260507211441 55 120 2.6 2.6 0.00 0.00 0.00 50 1015.0
20260507210441 55 120 2.6 2.6 0.00 0.00 0.00 50 1015.0
20260507205441 53 0 0.0 0.0 0.00 0.00 0.00 50 1015.0
20260507204441 53 0 0.0 0.0 0.00 0.00 0.00 50 1015.0
20260507203441 53 0 0.0 0.0 0.00 0.00 0.00 50 1015.0
20260507202441 53 20 4.3 4.3 0.00 0.00 0.00 50 1015.0
20260507201441 53 20 4.3 4.3 0.00 0.00 0.00 50 1015.0
20260507200441 53 20 4.3 4.3 0.00 0.00 0.00 50 1015.0
20260507195441 55 50 3.5 3.5 0.00 0.00 0.00 50 1015.0
20260507194441 55 50 3.5 3.5 0.00 0.00 0.00 50 1015.0
20260507193441 55 50 3.5 3.5 0.00 0.00 0.00 50 1015.0
20260507192441 57 110 2.6 2.6 0.00 0.00 0.00 50 1015.0
20260507191441 57 110 2.6 2.6 0.00 0.00 0.00 50 1015.0
20260507190441 57 110 2.6 2.6 0.00 0.00 0.00 50 1015.0
20260507185411 55 90 2.6 2.6 0.00 0.00 0.00 50 1015.0
20260507184411 55 90 2.6 2.6 0.00 0.00 0.00 50 1015.0
20260507183411 55 90 2.6 2.6 0.00 0.00 0.00 50 1015.0
20260507182411 59 0 0.0 0.0 0.00 0.00 0.00 50 1015.0
20260507181411 59 0 0.0 0.0 0.00 0.00 0.00 50 1015.0
20260507180411 59 0 0.0 0.0 0.00 0.00 0.00 50 1015.0
20260507175411 57 0 0.0 0.0 0.00 0.00 0.00 50 1015.0
20260507174411 57 0 0.0 0.0 0.00 0.00 0.00 50 1015.0
20260507173411 57 0 0.0 0.0 0.00 0.00 0.00 50 1015.0
20260507172411 59 250 2.6 2.6 0.00 0.00 0.00 50 1015.0
20260507171411 59 250 2.6 2.6 0.00 0.00 0.00 50 1015.0
20260507170411 59 250 2.6 2.6 0.00 0.00 0.00 50 1015.0
20260507165411 60 270 3.5 3.5 0.00 0.00 0.00 50 1015.0
20260507164411 60 270 3.5 3.5 0.00 0.00 0.00 50 1015.0
20260507163411 60 270 3.5 3.5 0.00 0.00 0.00 50 1015.0
20260507162411 62 270 6.1 6.1 0.00 0.00 0.00 50 1015.0
20260507161411 62 270 6.1 6.1 0.00 0.00 0.00 50 1015.0
20260507160411 62 270 6.1 6.1 0.00 0.00 0.00 50 1015.0
20260507155411 64 260 6.1 6.1 0.00 0.00 0.00 50 1015.0
20260507154411 64 260 6.1 6.1 0.00 0.00 0.00 50 1015.0
20260507153411 64 260 6.1 6.1 0.00 0.00 0.00 50 1015.0
20260507152411 64 250 7.0 7.0 0.00 0.00 0.00 50 1015.0
20260507151411 64 250 7.0 7.0 0.00 0.00 0.00 50 1015.0
20260507150341 64 250 7.0 7.0 0.00 0.00 0.00 50 1015.0
20260507145341 66 260 5.2 5.2 0.00 0.00 0.00 50 1015.0
20260507144341 66 260 5.2 5.2 0.00 0.00 0.00 50 1015.0
20260507143341 66 260 5.2 5.2 0.00 0.00 0.00 50 1015.0
20260507142341 64 250 6.1 6.1 0.00 0.00 0.00 50 1015.0
20260507141341 64 250 6.1 6.1 0.00 0.00 0.00 50 1015.0
20260507140341 64 250 6.1 6.1 0.00 0.00 0.00 50 1015.0
20260507135341 66 290 6.1 6.1 0.00 0.00 0.00 50 1015.0
20260507134341 66 290 6.1 6.1 0.00 0.00 0.00 50 1015.0
20260507133341 66 290 6.1 6.1 0.00 0.00 0.00 50 1015.0
20260507132341 64 310 5.2 5.2 0.00 0.00 0.00 50 1015.0
20260507131341 64 310 5.2 5.2 0.00 0.00 0.00 50 1015.0
20260507130341 64 310 5.2 5.2 0.00 0.00 0.00 50 1015.0
20260507125341 64 0 0.0 0.0 0.00 0.00 0.00 50 1015.0
20260507124341 64 0 0.0 0.0 0.00 0.00 0.00 50 1015.0
20260507123341 64 0 0.0 0.0 0.00 0.00 0.00 50 1015.0
20260507122341 64 230 7.0 7.0 0.00 0.00 0.00 50 1015.0
20260507121341 64 230 7.0 7.0 0.00 0.00 0.00 50 1015.0
20260507120341 64 230 7.0 7.0 0.00 0.00 0.00 50 1015.0
20260507115342 62 180 3.5 3.5 0.00 0.00 0.00 50 1015.0
20260507114342 62 180 3.5 3.5 0.00 0.00 0.00 50 1015.0
20260507113312 62 180 3.5 3.5 0.00 0.00 0.00 50 1015.0
20260507112312 62 0 0.0 0.0 0.00 0.00 0.00 50 1015.0
20260507111312 62 0 0.0 0.0 0.00 0.00 0.00 50 1015.0
20260507110312 62 0 0.0 0.0 0.00 0.00 0.00 50 1015.0
20260507105312 62 0 0.0 0.0 0.00 0.00 0.00 50 1015.0
20260507104312 62 0 0.0 0.0 0.00 0.00 0.00 50 1015.0
20260507103312 62 0 0.0 0.0 0.00 0.00 0.00 50 1015.0
20260507102312 60 270 3.5 3.5 0.00 0.00 0.00 50 1015.0